This is the latest recevied weather packets stored in our database for station/object AE5HO. If no packets are shown the sender has not sent any weather packets the latest 10 day(s).
| Time | Temp. | Humidity | Pressure | Rain* | Wind** | Luminosity | Snow |
|---|---|---|---|---|---|---|---|
| 1787904108 | 26.11° C | 72% | 1017.1 hPa | 0 mm | - | 0 W/m² | - |
| 1787903804 | 26.11° C | 71% | 1016.8 hPa | 0 mm | - | 0 W/m² | - |
| 1787903500 | 26.11° C | 71% | 1017.1 hPa | 0 mm | - | 0 W/m² | - |
| 1787903195 | 26.67° C | 71% | 1016.9 hPa | 0 mm | - | 0 W/m² | - |
| 1787902892 | 26.67° C | 70% | 1017 hPa | 0 mm | - | 0 W/m² | - |
| 1787902589 | 26.67° C | 70% | 1016.9 hPa | 0 mm | - | 0 W/m² | - |
| 1787902288 | 26.67° C | 69% | 1017.2 hPa | 0 mm | - | 0 W/m² | - |
| 1787901984 | 26.67° C | 68% | 1017.1 hPa | 0 mm | - | 0 W/m² | - |
| 1787901679 | 27.22° C | 68% | 1016.9 hPa | 0 mm | - | 0 W/m² | - |
| 1787901374 | 27.22° C | 68% | 1017.2 hPa | 0 mm | - | 0 W/m² | - |
| 1787901071 | 27.22° C | 68% | 1017 hPa | 0 mm | - | 0 W/m² | - |
| 1787900770 | 27.22° C | 67% | 1017 hPa | 0 mm | - | 0 W/m² | - |
| 1787900466 | 27.78° C | 67% | 1017 hPa | 0 mm | - | 0 W/m² | - |
| 1787900164 | 27.78° C | 66% | 1017.1 hPa | 0 mm | - | 0 W/m² | - |
| 1787899860 | 27.78° C | 65% | 1017.2 hPa | 0 mm | - | 0 W/m² | - |
| 1787899556 | 27.78° C | 64% | 1016.9 hPa | 0 mm | - | 0 W/m² | - |
| 1787899255 | 27.78° C | 64% | 1017.1 hPa | 0 mm | - | 0 W/m² | - |
| 1787898950 | 28.33° C | 64% | 1017.1 hPa | 0 mm | - | 0 W/m² | - |
| 1787898647 | 28.33° C | 63% | 1017.2 hPa | 0 mm | - | 0 W/m² | - |
| 1787898344 | 28.33° C | 64% | 1016.9 hPa | 0 mm | - | 0 W/m² | - |
| 1787898040 | 27.78° C | 68% | 1016.9 hPa | 0 mm | - | 0 W/m² | - |
| 1787897735 | 27.78° C | 68% | 1016.9 hPa | 0 mm | - | 0 W/m² | - |
| 1787897434 | 27.78° C | 65% | 1016.9 hPa | 0 mm | - | 0 W/m² | - |
| 1787897132 | 28.33° C | 66% | 1017 hPa | 0 mm | - | 0 W/m² | - |
| 1787896827 | 28.33° C | 61% | 1016.7 hPa | 0 mm | - | 0 W/m² | - |
* Rain latest hour (hover to see other rain measurements)
** Current wind speed in m/s (hover to see current wind gust speed)